Weather History for Havre, MT

Change the Weather History Date:

Monday, April 21, 2014

  Actual Average Record
Temperature  
Mean Temperature 49 °F 46 °F  
Max Temperature 69 °F 60 °F 85 °F (1942)
Min Temperature 29 °F 32 °F -3 °F (1967)
Degree Days  
Heating Degree Days 16 19  
Month to date heating degree days 458 462  
Since 1 July heating degree days 7861 7580  
Cooling Degree Days 0 0  
Month to date cooling degree days 0 0  
Year to date cooling degree days 0 0  
Moisture  
Dew Point 24 °F    
Average Humidity 43    
Maximum Humidity 72    
Minimum Humidity 14    
Precipitation  
Precipitation 0.00 in 0.03 in 0.40 in (1999)
Month to date precipitation 0.11 0.52  
Year to date precipitation 1.91 1.67  
Snow  
Snow 0.00 in 0.10 in 14.00 in (1967)
Month to date snowfall T 2.5  
Since 1 July snowfall 44.4 36.7  
Snow Depth 0.00 in    
Sea Level Pressure  
Sea Level Pressure 30.09 in    
Wind  
Wind Speed 9 mph (SSW)    
Max Wind Speed 17 mph    
Max Gust Speed 24 mph    
Visibility 10 miles    
Events      
T = Trace of Precipitation, MM = Missing Value Source: NWS Daily Summary

Daily Weather History Graph

Daily Weather History Graph

Search for Another Location

Airport:

Trip Planner

Search our weather history database for the weather conditions in past years. The results will help you decide how hot, cold, wet, or windy it might be!

Date:

Astronomy

Apr. 21, 2014 Rise Set
Actual Time 6:17 AM MDT 8:19 PM MDT
Civil Twilight 5:43 AM MDT 8:53 PM MDT
Nautical Twilight 5:01 AM MDT 9:35 PM MDT
Astronomical Twilight 4:15 AM MDT 10:22 PM MDT
Moon 1:58 AM MDT (4/21) 11:41 AM MDT (4/21)
Length of Visible Light 15h 09m
Length of Day
14h 02m
Waning Gibbous, 57% of the Moon is Illuminated
Apr 21
Waning Gibbous
Apr 22
Last Quarter
Apr 29
New
May 6
First Quarter
May 14
Full

Hourly Weather History & Observations

Time (MDT) Temp. Windchill Dew Point Humidity Pressure Visibility Wind Dir Wind Speed Gust Speed Precip Events Conditions
12:53 AM 42.1 °F - 24.1 °F 49% 30.18 in 10.0 mi Calm Calm - N/A   Clear
1:53 AM 37.0 °F 31.0 °F 23.0 °F 57% 30.20 in 10.0 mi South 8.1 mph - N/A   Clear
2:53 AM 34.0 °F 26.6 °F 23.0 °F 64% 30.20 in 10.0 mi South 9.2 mph - N/A   Clear
3:53 AM 30.9 °F 27.5 °F 23.0 °F 72% 30.22 in 10.0 mi North 3.5 mph - N/A   Clear
4:53 AM 32.0 °F - 23.0 °F 69% 30.23 in 10.0 mi Calm Calm - N/A   Clear
5:53 AM 30.9 °F 22.8 °F 23.0 °F 72% 30.23 in 10.0 mi SW 9.2 mph - N/A   Clear
6:53 AM 32.0 °F - 24.1 °F 73% 30.23 in 10.0 mi Calm Calm - N/A   Clear
7:53 AM 37.9 °F 35.5 °F 26.1 °F 62% 30.22 in 10.0 mi NW 3.5 mph - N/A   Clear
8:53 AM 46.0 °F 43.9 °F 28.0 °F 50% 30.22 in 10.0 mi WNW 4.6 mph - N/A   Clear
9:53 AM 54.0 °F - 26.1 °F 34% 30.20 in 10.0 mi SW 12.7 mph - N/A   Clear
10:53 AM 59.0 °F - 23.0 °F 25% 30.17 in 10.0 mi WSW 12.7 mph 24.2 mph N/A   Clear
11:53 AM 61.0 °F - 19.9 °F 21% 30.16 in 10.0 mi WSW 15.0 mph 18.4 mph N/A   Clear
12:53 PM 63.0 °F - 21.0 °F 20% 30.12 in 10.0 mi SSW 11.5 mph 17.3 mph N/A   Clear
1:53 PM 64.9 °F - 19.9 °F 18% 30.11 in 10.0 mi SW 11.5 mph - N/A   Clear
2:53 PM 66.0 °F - 19.9 °F 17% 30.08 in 10.0 mi West 12.7 mph 17.3 mph N/A   Clear
3:53 PM 69.1 °F - 19.9 °F 15% 30.05 in 10.0 mi WSW 16.1 mph 21.9 mph N/A   Clear
4:53 PM 68.0 °F - 18.0 °F 15% 30.03 in 10.0 mi WSW 6.9 mph - N/A   Clear
5:53 PM 66.0 °F - 19.0 °F 17% 30.01 in 10.0 mi South 4.6 mph - N/A   Clear
6:53 PM 64.0 °F - 30.0 °F 28% 29.99 in 10.0 mi SE 4.6 mph - N/A   Clear
7:53 PM 57.9 °F - 33.1 °F 39% 29.96 in 10.0 mi East 8.1 mph - N/A   Clear
8:53 PM 57.0 °F - 27.0 °F 32% 29.94 in 10.0 mi East 11.5 mph - N/A   Clear
9:53 PM 55.0 °F - 28.0 °F 35% 29.91 in 10.0 mi East 13.8 mph - N/A   Clear
10:53 PM 52.0 °F - 28.0 °F 40% 29.88 in 10.0 mi East 10.4 mph - N/A   Clear
11:53 PM 55.0 °F - 24.1 °F 30% 29.85 in 10.0 mi East 8.1 mph - N/A   Clear